Location: Unspecified
(0.0000°N, 0.0000°E)
Time: 13:47:58
(UTC+00:00)

Envisat - Pass Details

Date: 31 March 2020
Orbit: 764 x 766 km, 98.1° (Epoch: 02 April)

Event Time Altitude Azimuth Distance (km) Brightness Sun altitude
Rises 05:33:12 0° 29° (NNE) 3,214 6.7 -7.7°
Reaches altitude 10° 05:35:41 10° 38° (NE) 2,292 6.1 -7.1°
Maximum altitude 05:40:14 34° 102° (ESE) 1,234 5.0 -6.0°
Drops below altitude 10° 05:44:48 10° 166° (SSE) 2,301 5.6 -4.8°
Sets 05:47:17 0° 175° (S) 3,230 6.2 -4.2°
